KY4OP-13 Weather Reports


time (UTC)temp
C
wind
direction
speed
KPH
gust
KPH
rain 1hr
cm
rain 24hr
cm
rain mn
cm
humidity
%
barometer
mb
20260507201622 16 192 11.3 12.9 0.00 0.43 0.43 65 1011.5
20260507201119 17 244 6.4 11.3 0.00 0.43 0.43 66 1011.5
20260507200615 16 217 3.2 4.8 0.00 0.43 0.43 66 1011.5
20260507200111 15 207 4.8 11.3 0.00 0.43 0.43 70 1011.4
20260507195608 15 245 9.7 11.3 0.00 0.43 0.43 65 1011.3
20260507195106 15 274 6.4 11.3 0.00 0.43 0.43 70 1011.5
20260507194602 15 273 8.0 9.7 0.00 0.43 0.43 66 1011.8
20260507194057 15 267 6.4 12.9 0.00 0.43 0.43 68 1011.8
20260507193555 16 231 8.0 9.7 0.00 0.43 0.43 63 1011.7
20260507193052 16 225 8.0 9.7 0.00 0.43 0.43 60 1011.8
20260507192548 16 207 3.2 11.3 0.00 0.43 0.43 64 1012.0
20260507192045 15 235 6.4 9.7 0.00 0.43 0.43 66 1012.5
20260507191540 16 226 6.4 9.7 0.00 0.43 0.43 65 1012.3
20260507191037 15 250 3.2 9.7 0.00 0.43 0.43 67 1012.5
20260507190535 15 207 0.0 1.6 0.00 0.43 0.43 71 1012.5
20260507190034 14 268 3.2 9.7 0.00 0.43 0.43 66 1012.4
20260507185531 14 224 6.4 12.9 0.00 0.43 0.43 70 1012.1
20260507185028 14 208 6.4 12.9 0.00 0.43 0.43 68 1012.4
20260507184526 15 249 1.6 6.4 0.00 0.43 0.43 70 1012.5
20260507184024 15 218 4.8 11.3 0.00 0.43 0.43 72 1012.5
20260507183519 15 211 3.2 6.4 0.00 0.43 0.43 75 1012.3
20260507183017 16 244 6.4 6.4 0.00 0.43 0.43 62 1012.3
20260507182513 14 152 0.0 1.6 0.00 0.43 0.43 73 1012.8
20260507182008 13 212 3.2 6.4 0.00 0.43 0.43 70 1013.1
20260507181506 14 213 6.4 6.4 0.00 0.43 0.43 68 1013.0
20260507181002 15 266 1.6 9.7 0.00 0.43 0.43 70 1012.9
20260507180458 13 235 1.6 4.8 0.00 0.43 0.43 77 1012.7
20260507175954 13 232 3.2 4.8 0.00 0.43 0.43 78 1013.2
20260507175452 12 266 1.6 4.8 0.00 0.43 0.43 72 1012.8
20260507174949 13 226 4.8 4.8 0.00 0.43 0.43 71 1012.9
20260507174446 13 228 1.6 3.2 0.00 0.43 0.43 73 1013.0
20260507173943 13 211 0.0 4.8 0.00 0.43 0.43 77 1013.2
20260507173440 13 242 3.2 4.8 0.00 0.43 0.43 73 1013.2
20260507172937 14 218 3.2 3.2 0.00 0.43 0.43 71 1013.1
20260507172434 14 275 0.0 1.6 0.00 0.43 0.43 72 1013.1
20260507171930 13 188 0.0 1.6 0.00 0.43 0.43 73 1013.3
20260507171426 13 230 4.8 6.4 0.00 0.43 0.43 69 1013.6
20260507170924 13 1 0.0 1.6 0.00 0.43 0.43 71 1013.4
20260507170420 13 262 1.6 1.6 0.00 0.43 0.43 72 1013.6
20260507165917 13 354 0.0 1.6 0.00 0.43 0.43 71 1013.4
20260507165413 13 69 1.6 3.2 0.00 0.43 0.43 71 1013.7
20260507164909 13 255 0.0 6.4 0.00 0.43 0.43 70 1013.5
20260507164406 14 54 1.6 3.2 0.00 0.43 0.43 70 1013.7
20260507163903 13 132 0.0 0.0 0.00 0.43 0.43 76 1013.6
20260507163400 13 85 3.2 3.2 0.00 0.43 0.43 72 1013.8
20260507162857 13 167 0.0 0.0 0.00 0.43 0.43 77 1013.9
20260507162352 12 41 1.6 3.2 0.00 0.43 0.43 75 1014.2
20260507161849 13 253 0.0 0.0 0.00 0.43 0.43 75 1014.4
20260507161346 12 44 0.0 0.0 0.00 0.43 0.43 78 1014.4
20260507160843 12 24 4.8 4.8 0.13 0.43 0.43 71 1014.3
20260507160338 12 155 0.0 1.6 0.13 0.43 0.43 74 1014.6
20260507155835 12 152 0.0 3.2 0.00 0.41 0.41 75 1014.6
20260507155331 12 41 3.2 3.2 0.00 0.41 0.41 67 1014.2
20260507154828 12 2 1.6 1.6 0.00 0.41 0.41 66 1014.4
20260507154325 12 20 3.2 9.7 0.00 0.41 0.41 69 1014.0
20260507153821 13 18 4.8 11.3 0.00 0.41 0.41 66 1014.1
20260507153318 12 79 1.6 3.2 0.00 0.41 0.41 71 1014.0
20260507152814 12 12 6.4 9.7 0.00 0.41 0.41 68 1014.2
20260507152311 12 30 8.0 11.3 0.00 0.41 0.41 68 1014.3
20260507151807 12 41 3.2 11.3 0.00 0.41 0.41 73 1014.2
20260507151303 12 48 6.4 9.7 0.00 0.41 0.41 71 1014.5
20260507150800 12 73 3.2 4.8 0.00 0.41 0.41 77 1014.3
20260507150257 12 83 3.2 3.2 0.00 0.41 0.41 77 1014.5
20260507145753 11 47 1.6 4.8 0.00 0.41 0.41 79 1014.4
20260507145249 11 7 3.2 4.8 0.00 0.41 0.41 78 1014.6
20260507144747 11 83 1.6 3.2 0.00 0.41 0.41 82 1014.4
20260507144244 11 63 3.2 3.2 0.00 0.41 0.41 82 1014.7
20260507143740 11 98 1.6 3.2 0.00 0.41 0.41 82 1014.7
20260507143238 11 65 3.2 3.2 0.00 0.41 0.41 83 1014.7
20260507142734 11 31 1.6 4.8 0.00 0.41 0.41 82 1014.8
20260507142230 11 31 3.2 4.8 0.00 0.41 0.41 82 1014.9
20260507141727 11 64 1.6 4.8 0.00 0.41 0.41 83 1015.0
20260507141224 11 29 6.4 9.7 0.00 0.41 0.41 82 1015.0
20260507140720 11 67 1.6 3.2 0.00 0.41 0.41 84 1015.0
20260507140218 11 44 1.6 3.2 0.00 0.41 0.41 83 1015.0
20260507135714 11 66 1.6 3.2 0.00 0.41 0.41 83 1015.1
20260507135212 11 45 1.6 9.7 0.00 0.41 0.41 82 1015.1
20260507134708 11 62 6.4 12.9 0.00 0.41 0.41 80 1015.1
20260507134204 11 56 6.4 11.3 0.00 0.41 0.41 81 1015.0
20260507133700 11 34 1.6 12.9 0.00 0.41 0.41 83 1014.9
20260507133158 11 53 4.8 6.4 0.00 0.41 0.41 82 1015.0
20260507132655 11 69 4.8 16.1 0.00 0.41 0.41 83 1015.2
20260507132151 11 54 1.6 4.8 0.00 0.41 0.41 85 1015.0
20260507131648 11 57 1.6 4.8 0.00 0.41 0.41 86 1015.0
20260507131145 11 30 9.7 11.3 0.00 0.41 0.41 86 1015.0
20260507130642 11 32 6.4 11.3 0.00 0.41 0.41 86 1014.8
20260507130140 11 27 4.8 4.8 0.00 0.41 0.41 87 1015.1
20260507125639 11 57 3.2 6.4 0.00 0.41 0.41 87 1014.9
20260507125136 11 26 3.2 6.4 0.00 0.41 0.41 86 1015.1
20260507124631 11 60 1.6 4.8 0.00 0.41 0.41 86 1015.0
20260507124130 11 22 1.6 4.8 0.00 0.41 0.41 87 1015.1
20260507123628 11 72 4.8 4.8 0.00 0.41 0.41 86 1015.0
20260507123124 11 37 4.8 6.4 0.00 0.41 0.41 87 1015.0
20260507122620 11 64 0.0 6.4 0.00 0.41 0.41 87 1014.8
20260507122115 11 71 3.2 9.7 0.00 0.41 0.41 87 1014.5
20260507121612 11 37 6.4 9.7 0.00 0.41 0.41 87 1014.5
20260507121108 11 76 1.6 3.2 0.00 0.41 0.41 88 1014.6
20260507120604 11 19 1.6 4.8 0.00 0.41 0.41 88 1014.6
20260507120100 11 41 0.0 3.2 0.00 0.41 0.41 87 1014.5
20260507115557 11 33 1.6 6.4 0.00 0.41 0.41 87 1014.6
20260507115053 11 12 0.0 0.0 0.00 0.41 0.41 87 1014.4
20260507114549 11 9 4.8 4.8 0.00 0.41 0.41 85 1014.3
20260507114046 11 55 4.8 11.3 0.00 0.41 0.41 86 1014.3
20260507113543 11 77 3.2 6.4 0.00 0.41 0.41 87 1014.2
20260507113040 11 1 4.8 11.3 0.00 0.41 0.41 87 1014.0
20260507112538 11 68 3.2 4.8 0.00 0.41 0.41 89 1014.2
20260507112035 11 68 1.6 3.2 0.00 0.41 0.41 89 1014.1
20260507111532 11 59 1.6 3.2 0.00 0.41 0.41 90 1014.1
20260507111028 11 79 1.6 4.8 0.00 0.41 0.41 91 1014.0
20260507110525 11 51 1.6 3.2 0.00 0.41 0.41 91 1014.1
20260507110021 11 32 0.0 0.0 0.00 0.41 0.41 91 1014.0
20260507105519 11 65 0.0 3.2 0.00 0.41 0.41 91 1014.2
20260507105014 11 30 0.0 6.4 0.00 0.41 0.41 91 1014.0
20260507104512 11 28 3.2 3.2 0.00 0.41 0.41 92 1014.2
20260507104008 11 49 0.0 1.6 0.00 0.41 0.41 92 1014.0
20260507103505 11 53 0.0 1.6 0.00 0.41 0.41 92 1014.0
20260507103001 11 54 1.6 1.6 0.00 0.41 0.41 92 1013.7
20260507102458 11 50 1.6 1.6 0.00 0.41 0.41 92 1014.1
20260507101954 11 59 1.6 1.6 0.00 0.41 0.41 92 1014.0
20260507101449 11 58 0.0 0.0 0.00 0.41 0.41 92 1013.9
20260507100946 11 35 0.0 1.6 0.00 0.41 0.41 92 1013.9
20260507100444 11 38 3.2 3.2 0.00 0.41 0.41 93 1013.5
20260507095942 -17 0.0 0.0 0.00 0.41 0.41 1013.8
20260507095439 11 59 0.0 1.6 0.00 0.41 0.41 93 1013.6
20260507094936 11 59 0.0 1.6 0.00 0.41 0.41 93 1013.5
20260507094432 11 60 0.0 1.6 0.00 0.41 0.41 93 1013.8
20260507093929 -17 0.0 0.0 0.00 0.41 0.41 1013.6
20260507093427 -17 0.0 0.0 0.00 0.41 0.41 1013.8
20260507092920 -17 0.0 0.0 0.00 0.41 0.41 1013.6
20260507092415 -17 0.0 0.0 0.00 0.41 0.41 1013.6
20260507091912 11 43 0.0 0.0 0.00 0.41 0.41 94 1013.6
20260507091409 11 43 0.0 0.0 0.00 0.41 0.41 94 1013.6
20260507090904 11 75 1.6 1.6 0.00 0.41 0.41 94 1013.6
20260507090401 11 77 1.6 1.6 0.00 0.41 0.41 94 1013.4
20260507085858 11 77 1.6 1.6 0.00 0.41 0.41 94 1013.5
20260507085355 11 82 0.0 1.6 0.00 0.41 0.41 94 1013.2
20260507084852 11 69 1.6 1.6 0.00 0.41 0.41 93 1013.1
20260507084348 11 74 1.6 4.8 0.00 0.41 0.41 93 1013.0
20260507083846 11 89 3.2 3.2 0.00 0.41 0.41 93 1013.1
20260507083342 11 74 3.2 9.7 0.00 0.41 0.41 93 1013.2
20260507082839 11 49 3.2 3.2 0.00 0.41 0.41 94 1013.1
20260507082334 11 60 6.4 6.4 0.00 0.41 0.41 94 1013.3
20260507081832 11 79 1.6 3.2 0.00 0.41 0.41 94 1013.2
20260507081327 11 37 1.6 4.8 0.00 0.41 0.41 93 1013.3
20260507080824 11 31 4.8 6.4 0.00 0.41 0.41 94 1013.1
20260507080321 11 60 4.8 4.8 0.00 0.41 0.41 94 1013.3
20260507075816 11 354 3.2 3.2 0.00 0.41 0.41 94 1013.3
20260507075312 11 69 3.2 9.7 0.00 0.41 0.41 94 1013.2
20260507074809 11 74 4.8 6.4 0.00 0.41 0.41 94 1013.5
20260507074307 11 30 1.6 9.7 0.00 0.41 0.41 94 1013.2
20260507073803 11 49 3.2 4.8 0.00 0.41 0.41 95 1012.9
20260507073300 11 87 1.6 6.4 0.00 0.41 0.41 95 1012.5
20260507072757 11 42 4.8 6.4 0.00 0.41 0.41 95 1012.4
20260507072255 11 47 1.6 11.3 0.00 0.41 0.41 95 1012.4
20260507071752 11 38 6.4 9.7 0.00 0.41 0.41 95 1012.5
20260507071248 11 53 4.8 6.4 0.00 0.41 0.41 96 1012.6
20260507070745 11 39 3.2 4.8 0.00 0.41 0.41 96 1012.6
20260507070242 11 53 3.2 11.3 0.00 0.41 0.41 96 1012.7
20260507065739 11 11 1.6 4.8 0.00 0.41 0.41 96 1012.4
20260507065236 11 64 4.8 9.7 0.00 0.41 0.41 96 1012.8
20260507064733 12 65 6.4 6.4 0.00 0.41 0.41 96 1012.7
20260507064232 12 29 4.8 6.4 0.00 0.41 0.41 96 1012.5
20260507063729 12 58 8.0 9.7 0.00 0.41 0.41 96 1012.7
20260507063226 12 15 8.0 12.9 0.00 0.41 0.41 96 1012.6
20260507062722 12 41 6.4 6.4 0.00 0.41 0.41 95 1012.6
20260507062220 12 68 6.4 9.7 0.00 0.41 0.41 96 1012.4
20260507061718 12 77 8.0 11.3 0.00 0.41 0.41 96 1012.5
20260507061216 12 36 4.8 9.7 0.00 0.41 0.41 96 1012.8
20260507060714 12 36 4.8 4.8 0.00 0.41 0.41 96 1013.3
20260507060210 12 67 3.2 11.3 0.00 0.41 0.41 96 1013.1
20260507055706 12 63 4.8 6.4 0.00 0.41 0.41 96 1013.0
20260507055202 12 26 6.4 9.7 0.00 0.41 0.41 97 1013.1
20260507054658 12 67 1.6 12.9 0.00 0.41 0.41 97 1012.9
20260507054154 12 29 6.4 6.4 0.00 0.41 0.41 97 1012.9
20260507053653 12 45 4.8 6.4 0.00 0.41 0.41 97 1012.8
20260507053150 13 326 1.6 6.4 0.00 0.41 0.41 97 1012.6
20260507052649 13 24 8.0 12.9 0.00 0.41 0.41 97 1012.6
20260507052144 13 26 3.2 11.3 0.00 0.41 0.41 97 1012.6
20260507051642 13 7 6.4 11.3 0.00 0.41 0.41 98 1012.2
20260507051139 13 62 4.8 12.9 0.00 0.41 0.41 98 1011.8
20260507050635 13 22 4.8 9.7 0.18 0.41 0.41 98 1011.6
20260507050126 13 22 6.4 6.4 0.00 0.38 0.38 97 1011.7
20260507045623 13 249 1.6 3.2 0.00 0.38 0.38 97 1012.3
20260507045120 13 81 1.6 4.8 0.00 0.38 0.38 97 1012.7
20260507044617 13 25 0.0 1.6 0.00 0.38 0.38 97 1012.4
20260507044114 13 353 3.2 12.9 0.89 0.38 0.38 97 1011.4
20260507043609 13 53 1.6 1.6 1.07 0.38 0.38 97 1011.1
20260507043106 14 95 3.2 4.8 1.07 0.23 0.23 97 1011.8
20260507042602 14 319 1.6 4.8 1.07 0.20 0.20 97 1013.0
20260507042058 14 58 3.2 6.4 0.18 0.05 0.05 97 1012.7
20260507041555 14 47 4.8 6.4 0.00 0.03 0.03 97 1012.4
20260507041052 15 45 3.2 4.8 0.00 0.03 0.03 97 1012.5
20260507040548 15 82 3.2 9.7 0.13 0.03 0.03 97 1012.1
20260507040044 15 33 3.2 3.2 0.00 0.00 0.00 97 1012.2
20260507035541 15 63 1.6 9.7 0.00 0.61 0.61 96 1012.5
20260507035037 15 67 3.2 14.5 0.18 0.61 0.61 97 1012.6
20260507034534 15 39 3.2 9.7 0.89 0.61 0.61 96 1012.9
20260507034033 16 63 6.4 11.3 1.07 0.53 0.53 96 1012.9
20260507033530 16 308 1.6 3.2 0.18 0.38 0.38 96 1012.4
20260507033027 16 263 3.2 3.2 0.13 0.36 0.36 96 1012.5
20260507032524 17 49 6.4 9.7 0.30 0.36 0.36 96 1012.3
20260507032020 17 222 3.2 3.2 0.18 0.33 0.33 96 1012.4
20260507031516 17 18 1.6 3.2 0.00 0.30 0.30 96 1012.1
20260507031014 17 25 1.6 4.8 0.00 0.30 0.30 96 1011.7
20260507030510 17 86 1.6 1.6 0.13 0.30 0.30 95 1011.6
20260507030008 17 87 1.6 3.2 0.30 0.30 0.30 95 1011.8
20260507025504 17 37 1.6 3.2 0.18 0.28 0.28 95 1011.7
20260507025002 17 61 3.2 3.2 0.00 0.25 0.25 95 1012.1
20260507024459 17 77 1.6 4.8 0.00 0.25 0.25 95 1012.0
20260507023955 17 40 4.8 4.8 0.00 0.25 0.25 95 1011.8
20260507023452 17 62 1.6 1.6 0.00 0.25 0.25 94 1011.5
20260507022949 17 33 3.2 4.8 0.00 0.25 0.25 94 1011.6
20260507022447 17 68 0.0 1.6 0.00 0.25 0.25 94 1012.0
20260507021942 17 88 0.0 3.2 0.00 0.25 0.25 94 1011.8
20260507021437 17 46 1.6 1.6 0.00 0.25 0.25 93 1011.8
20260507020935 17 52 0.0 1.6 0.00 0.25 0.25 93 1011.7
20260507020432 17 70 1.6 3.2 0.00 0.25 0.25 92 1011.3
20260507015929 17 33 3.2 4.8 0.00 0.25 0.25 92 1011.4
20260507015427 17 70 1.6 3.2 0.00 0.25 0.25 93 1011.4
20260507014924 17 222 0.0 1.6 0.00 0.25 0.25 91 1011.1
20260507014420 17 222 0.0 0.0 0.00 0.25 0.25 91 1011.1
20260507013917 17 222 0.0 0.0 0.00 0.25 0.25 90 1010.9
20260507013414 18 222 0.0 1.6 0.00 0.25 0.25 89 1011.0
20260507012912 18 223 0.0 0.0 0.00 0.25 0.25 88 1011.4
20260507012408 18 223 0.0 0.0 0.00 0.25 0.25 87 1011.5
20260507011859 18 206 3.2 3.2 0.00 0.25 0.25 86 1011.4
20260507011355 18 216 0.0 1.6 0.00 0.25 0.25 86 1011.6
20260507010855 18 217 3.2 3.2 0.00 0.25 0.25 86 1011.4
20260507010351 19 220 3.2 3.2 0.00 0.25 0.25 86 1011.6
20260507005848 19 213 1.6 3.2 0.00 0.25 0.25 85 1011.5
20260507005345 19 260 4.8 4.8 0.00 0.25 0.25 85 1012.1
20260507004837 -17 0.0 0.0 0.00 0.25 0.25 1011.5
20260507004334 19 222 3.2 3.2 0.00 0.25 0.25 85 1011.4
20260507003831 19 222 3.2 3.2 0.00 0.25 0.25 85 1011.4
20260507003326 19 236 1.6 1.6 0.00 0.25 0.25 85 1010.9
20260507002821 19 273 3.2 4.8 0.00 0.25 0.25 85 1011.0
20260507002317 19 229 1.6 3.2 0.00 0.25 0.25 85 1011.0
20260507001815 19 219 4.8 9.7 0.00 0.25 0.25 85 1010.8
20260507001312 19 202 4.8 6.4 0.00 0.25 0.25 85 1010.6
20260507000808 19 262 3.2 4.8 0.00 0.25 0.25 84 1010.6
20260507000306 19 235 3.2 3.2 0.00 0.25 0.25 84 1010.8
20260506235801 -17 0.0 0.0 0.00 0.25 0.25 1010.7
20260506235256 -17 0.0 0.0 0.00 0.25 0.25 1011.1
20260506234753 20 240 4.8 4.8 0.00 0.25 0.25 83 1010.7
20260506234250 -17 0.0 0.0 0.00 0.25 0.25 1010.9
20260506233743 -17 0.0 0.0 0.00 0.25 0.25 1010.7
20260506233239 20 238 9.7 11.3 0.00 0.25 0.25 81 1010.5
20260506232735 20 238 9.7 11.3 0.00 0.25 0.25 81 1010.7
20260506232230 20 225 6.4 11.3 0.00 0.25 0.25 81 1010.6
20260506231727 20 236 6.4 6.4 0.00 0.25 0.25 80 1010.6
20260506231226 21 233 8.0 11.3 0.00 0.25 0.25 80 1010.4
20260506230722 21 233 4.8 6.4 0.00 0.25 0.25 79 1010.1
20260506230219 20 212 3.2 4.8 0.00 0.25 0.25 80 1010.4
20260506225715 20 218 6.4 6.4 0.00 0.25 0.25 80 1010.3
20260506225212 20 233 6.4 11.3 0.00 0.25 0.25 80 1010.5
20260506224709 21 227 4.8 4.8 0.00 0.25 0.25 79 1010.6
20260506224206 21 232 6.4 12.9 0.00 0.25 0.25 79 1010.5
20260506223702 21 227 4.8 11.3 0.00 0.25 0.25 79 1010.6
20260506223158 21 228 1.6 9.7 0.00 0.25 0.25 79 1010.5
20260506222655 21 225 6.4 12.9 0.00 0.25 0.25 78 1010.4
20260506222150 21 214 4.8 9.7 0.00 0.25 0.25 79 1010.2
20260506221649 21 170 4.8 12.9 0.00 0.25 0.25 78 1010.3
20260506221147 21 234 6.4 9.7 0.00 0.25 0.25 79 1010.2
20260506220643 21 231 4.8 12.9 0.00 0.25 0.25 79 1010.3
20260506220138 21 285 4.8 6.4 0.00 0.25 0.25 79 1010.6
20260506215635 21 224 3.2 6.4 0.00 0.25 0.25 78 1010.3
20260506215130 21 248 6.4 9.7 0.00 0.25 0.25 78 1010.3
20260506214627 21 232 6.4 14.5 0.00 0.25 0.25 77 1009.9
20260506214125 21 231 4.8 6.4 0.00 0.25 0.25 76 1010.3
20260506213623 21 216 6.4 9.7 0.00 0.25 0.25 77 1010.2
20260506213120 21 222 11.3 14.5 0.00 0.25 0.25 78 1010.2
20260506212617 21 209 4.8 6.4 0.00 0.25 0.25 78 1010.1
20260506212112 21 235 8.0 11.3 0.00 0.25 0.25 78 1010.2
20260506211608 21 220 6.4 12.9 0.00 0.25 0.25 79 1010.3
20260506211105 21 212 9.7 12.9 0.00 0.25 0.25 78 1010.2
20260506210602 21 198 4.8 12.9 0.00 0.25 0.25 78 1010.0
20260506210058 21 244 14.5 20.9 0.00 0.25 0.25 78 1010.2
20260506205555 20 231 6.4 11.3 0.00 0.25 0.25 79 1010.0
20260506205050 20 238 11.3 12.9 0.00 0.25 0.25 80 1010.1
20260506204549 20 215 8.0 17.7 0.00 0.25 0.25 79 1010.0
20260506204045 20 235 8.0 12.9 0.00 0.25 0.25 80 1010.1
20260506203544 20 253 11.3 14.5 0.00 0.25 0.25 80 1010.1
20260506203040 20 205 8.0 12.9 0.00 0.25 0.25 81 1010.0
20260506202537 20 208 3.2 11.3 0.00 0.25 0.25 82 1010.1
20260506202033 20 236 12.9 14.5 0.00 0.25 0.25 80 1009.8